Tracking 19644 objects as of 24-Apr-2019
HD Live streaming from Space Station
objects crossing your sky now

EKRAN 7

Track EKRAN 7 now!
EKRAN 7 is classified as:


NORAD ID: 12564
Int'l Code: 1981-061A
Perigee: 35,747.3 km
Apogee: 35,812.3 km
Inclination: 12.3 °
Period: 1,435.4 minutes
Semi major axis: 42150 km
RCS: 3.9811 m2 (large)
Launch date: June 26, 1981
Source: Commonwealth of Independent States (former USSR) (CIS)
Launch site: TYURATAM MISSILE AND SPACE COMPLEX (TTMTR)
aabbcc
Your satellite tracking list
Your tracking list is empty




NASA's NSSDC Master Catalog

Two Line Element Set (TLE):
1 12564U 81061A   19114.05333269 -.00000244  00000-0  00000+0 0  9991
2 12564  12.2581 320.3453 0007711  16.9123 341.5487  1.00321658103324
Source of the keplerian elements: AFSPC